Location: Caltech
(34.1382°N, 118.1253°W)
Time: 17:39:02
(UTC-07:00)

BREEZE M DEB (TANK) - Visible Passes

Search period start: 22 October 2014 00:00
Search period end: 01 November 2014 00:00
Orbit: 339 x 13819 km, 49.6° (Epoch: 22 October)

Date Brightness Start Highest point End Pass type
(mag) Time Alt. Az. Time Alt. Az. Time Alt. Az.
22 Oct 7.9 22:18:49 10° SSW 22:29:52 21° S 22:29:52 21° S visible
24 Oct 7.7 21:43:59 10° SSW 21:59:09 24° S 21:59:09 24° S visible
25 Oct 8.1 23:51:04 10° SW 23:53:17 13° SW 23:53:17 13° SW visible
26 Oct 7.5 21:09:13 10° S 21:28:22 25° SSE 21:28:22 25° SSE visible
27 Oct 4.1 06:35:00 10° NNW 06:37:50 44° NE 06:44:38 10° ESE visible
27 Oct 7.8 23:15:23 10° SW 23:22:27 19° SW 23:22:27 19° SW visible
28 Oct 7.4 20:34:40 10° S 20:57:29 25° SSE 20:57:29 25° SSE visible
29 Oct 4.5 06:02:45 11° NNW 06:05:08 30° NE 06:10:16 10° ESE visible
29 Oct 7.5 22:39:25 10° SW 22:51:31 26° SSW 22:51:31 26° SSW visible
30 Oct 7.4 20:00:27 10° S 20:25:15 23° SE 20:26:31 22° SE visible
31 Oct 4.5 05:31:12 17° N 05:32:21 21° NE 05:35:53 10° E visible
31 Oct 7.2 22:03:14 10° SSW 22:20:30 33° SSW 22:20:30 33° SSW visible
